FIN46D EFOU-EFHK

Flight info

Callsign FIN46D
Flight time 0h 48m
Altitude 35000
Route MIKNU Y86 LUSEP
Aircraft A321/M-SDE3FGHIRWY/LB1

Departure

Time 2026-05-05 20:05
Airport Oulu Airport (EFOU)

Arrival

Time 2026-05-05 20:53
Airport Helsinki Vantaa Airport (EFHK)
Time Latitude Longitude Altitude Speed Heading
2026-05-05 19:32 64.92797 25.37339 49 ft 0 kts 29°
2026-05-05 19:58 64.92795 25.37337 49 ft 1 kts 29°
2026-05-05 19:58 64.92782 25.37319 49 ft 2 kts 29°
2026-05-05 19:58 64.92769 25.37303 49 ft 2 kts 29°
2026-05-05 19:58 64.92756 25.37283 49 ft 2 kts 52°
2026-05-05 19:59 64.92749 25.37251 49 ft 2 kts 78°
2026-05-05 19:59 64.92749 25.37217 49 ft 2 kts 105°
2026-05-05 19:59 64.92753 25.37197 49 ft 1 kts 123°
2026-05-05 19:59 64.92756 25.37187 49 ft 0 kts 121°
2026-05-05 20:01 64.92754 25.37194 49 ft 4 kts 121°
2026-05-05 20:01 64.92718 25.37333 48 ft 11 kts 120°
2026-05-05 20:01 64.92674 25.37510 47 ft 13 kts 120°
2026-05-05 20:02 64.92622 25.37716 45 ft 15 kts 120°
2026-05-05 20:02 64.92583 25.37871 44 ft 10 kts 121°
2026-05-05 20:02 64.92532 25.37940 42 ft 8 kts 184°
2026-05-05 20:02 64.92510 25.37921 42 ft 1 kts 216°
2026-05-05 20:03 64.92504 25.37907 42 ft 0 kts 229°
2026-05-05 20:03 64.92494 25.37880 42 ft 5 kts 229°
2026-05-05 20:03 64.92469 25.37806 42 ft 6 kts 234°
2026-05-05 20:04 64.92445 25.37723 42 ft 5 kts 244°
2026-05-05 20:04 64.92447 25.37657 43 ft 1 kts 297°
2026-05-05 20:04 64.92451 25.37639 43 ft 11 kts 299°
2026-05-05 20:04 64.92618 25.36975 49 ft 82 kts 300°
2026-05-05 20:05 64.93022 25.35389 52 ft 142 kts 301°
2026-05-05 20:05 64.93570 25.33222 447 ft 158 kts 300°
2026-05-05 20:05 64.94102 25.31035 1141 ft 156 kts 297°
2026-05-05 20:05 64.94620 25.28858 1866 ft 154 kts 300°
2026-05-05 20:06 64.95193 25.26655 2309 ft 166 kts 301°
2026-05-05 20:06 64.95682 25.24072 2676 ft 184 kts 278°
2026-05-05 20:06 64.95454 25.20927 3038 ft 210 kts 246°
2026-05-05 20:06 64.94389 25.18339 3462 ft 240 kts 217°
2026-05-05 20:07 64.92901 25.16354 4036 ft 253 kts 216°
2026-05-05 20:07 64.91386 25.14209 4801 ft 258 kts 217°
2026-05-05 20:07 64.89788 25.12331 5583 ft 268 kts 200°
2026-05-05 20:07 64.87902 25.12322 6368 ft 284 kts 171°
2026-05-05 20:08 64.86009 25.13712 7214 ft 287 kts 166°
2026-05-05 20:08 64.84122 25.15148 7966 ft 291 kts 166°
2026-05-05 20:08 64.82210 25.16581 8673 ft 294 kts 166°
2026-05-05 20:08 64.80253 25.18029 9362 ft 298 kts 166°
2026-05-05 20:09 64.78282 25.19474 10029 ft 303 kts 166°
2026-05-05 20:09 64.76185 25.20611 10394 ft 315 kts 178°
2026-05-05 20:09 64.73978 25.20717 10748 ft 328 kts 184°
2026-05-05 20:09 64.71672 25.20562 11278 ft 335 kts 185°
2026-05-05 20:10 64.69342 25.20422 11944 ft 339 kts 184°
2026-05-05 20:10 64.66976 25.20340 12584 ft 343 kts 183°
2026-05-05 20:10 64.64597 25.20309 13208 ft 347 kts 182°
2026-05-05 20:10 64.62202 25.20308 13817 ft 351 kts 181°
2026-05-05 20:11 64.59738 25.20328 14422 ft 355 kts 181°
2026-05-05 20:11 64.57295 25.20360 15037 ft 357 kts 181°
2026-05-05 20:11 64.54810 25.20399 15665 ft 360 kts 180°
2026-05-05 20:11 64.52328 25.20443 16302 ft 361 kts 180°
2026-05-05 20:12 64.49831 25.20488 16908 ft 363 kts 180°
2026-05-05 20:12 64.47285 25.20534 17505 ft 366 kts 179°
2026-05-05 20:12 64.44748 25.20581 18078 ft 368 kts 179°
2026-05-05 20:12 64.42200 25.20630 18634 ft 370 kts 179°
2026-05-05 20:13 64.39650 25.20678 19174 ft 373 kts 179°
2026-05-05 20:13 64.37055 25.20731 19714 ft 375 kts 179°
2026-05-05 20:13 64.34446 25.20790 20242 ft 377 kts 179°
2026-05-05 20:13 64.31826 25.20847 20751 ft 379 kts 179°
2026-05-05 20:14 64.29199 25.20902 21249 ft 380 kts 180°
2026-05-05 20:14 64.26582 25.20956 21730 ft 382 kts 180°
2026-05-05 20:14 64.23918 25.21008 22206 ft 384 kts 180°
2026-05-05 20:14 64.21249 25.21056 22678 ft 386 kts 180°
2026-05-05 20:15 64.18593 25.21104 23118 ft 387 kts 181°
2026-05-05 20:15 64.15916 25.21154 23552 ft 389 kts 181°
2026-05-05 20:15 64.13210 25.21205 23957 ft 391 kts 181°
2026-05-05 20:15 64.10506 25.21258 24353 ft 393 kts 181°
2026-05-05 20:16 64.07761 25.21309 24734 ft 394 kts 182°
2026-05-05 20:16 64.05015 25.21359 25042 ft 396 kts 182°
2026-05-05 20:16 64.02293 25.21411 25341 ft 398 kts 182°
2026-05-05 20:16 63.99533 25.21459 25669 ft 399 kts 182°
2026-05-05 20:17 63.96757 25.21509 25936 ft 401 kts 183°
2026-05-05 20:17 63.93961 25.21564 26227 ft 403 kts 183°
2026-05-05 20:17 63.91185 25.21617 26528 ft 404 kts 184°
2026-05-05 20:17 63.88363 25.21667 26826 ft 405 kts 184°
2026-05-05 20:18 63.85586 25.21717 27097 ft 406 kts 184°
2026-05-05 20:18 63.82752 25.21768 27368 ft 407 kts 184°
2026-05-05 20:18 63.79938 25.21821 27642 ft 408 kts 185°
2026-05-05 20:18 63.77089 25.21870 27936 ft 409 kts 185°
2026-05-05 20:19 63.74253 25.21920 28191 ft 410 kts 185°
2026-05-05 20:19 63.71413 25.21969 28445 ft 412 kts 185°
2026-05-05 20:19 63.68582 25.22019 28689 ft 413 kts 185°
2026-05-05 20:19 63.65720 25.22072 28926 ft 414 kts 186°
2026-05-05 20:20 63.62843 25.22124 29195 ft 414 kts 186°
2026-05-05 20:20 63.59969 25.22176 29442 ft 415 kts 186°
2026-05-05 20:20 63.57074 25.22227 29664 ft 416 kts 186°
2026-05-05 20:20 63.54195 25.22277 29913 ft 417 kts 186°
2026-05-05 20:21 63.51323 25.22327 30152 ft 418 kts 186°
2026-05-05 20:21 63.48420 25.22376 30366 ft 419 kts 187°
2026-05-05 20:21 63.45506 25.22422 30572 ft 421 kts 187°
2026-05-05 20:21 63.42572 25.22471 30773 ft 422 kts 186°
2026-05-05 20:22 63.39646 25.22519 30969 ft 424 kts 186°
2026-05-05 20:22 63.36740 25.22568 31171 ft 425 kts 186°
2026-05-05 20:22 63.33803 25.22620 31414 ft 424 kts 186°
2026-05-05 20:22 63.30863 25.22672 31659 ft 424 kts 186°
2026-05-05 20:23 63.27912 25.22725 31885 ft 424 kts 186°
2026-05-05 20:23 63.24990 25.22773 32075 ft 425 kts 186°
2026-05-05 20:23 63.22033 25.22825 32289 ft 425 kts 186°
2026-05-05 20:23 63.19086 25.22878 32505 ft 425 kts 186°
2026-05-05 20:24 63.16175 25.22930 32732 ft 425 kts 186°
2026-05-05 20:24 63.13201 25.22982 32957 ft 424 kts 186°
2026-05-05 20:24 63.10302 25.23031 33172 ft 424 kts 185°
2026-05-05 20:24 63.07371 25.23082 33388 ft 424 kts 185°
2026-05-05 20:25 63.04419 25.23133 33585 ft 425 kts 185°
2026-05-05 20:25 63.01488 25.23183 33787 ft 425 kts 185°
2026-05-05 20:25 62.98518 25.23237 34015 ft 425 kts 185°
2026-05-05 20:25 62.95605 25.23287 34241 ft 424 kts 185°
2026-05-05 20:26 62.92649 25.23339 34485 ft 424 kts 186°
2026-05-05 20:26 62.89736 25.23392 34691 ft 424 kts 186°
2026-05-05 20:26 62.86787 25.23442 34887 ft 424 kts 186°
2026-05-05 20:26 62.83858 25.23491 35063 ft 425 kts 186°
2026-05-05 20:27 62.80893 25.23539 35228 ft 426 kts 186°
2026-05-05 20:27 62.77932 25.23587 35366 ft 427 kts 186°
2026-05-05 20:27 62.74984 25.23635 35506 ft 428 kts 186°
2026-05-05 20:27 62.72020 25.23685 35670 ft 429 kts 186°
2026-05-05 20:28 62.69030 25.23734 35806 ft 430 kts 186°
2026-05-05 20:28 62.66056 25.23781 35924 ft 431 kts 186°
2026-05-05 20:28 62.63071 25.23832 36057 ft 432 kts 186°
2026-05-05 20:28 62.60079 25.23886 36183 ft 433 kts 186°
2026-05-05 20:29 62.57086 25.23933 36295 ft 435 kts 186°
2026-05-05 20:29 62.54057 25.23983 36406 ft 435 kts 186°
2026-05-05 20:29 62.51066 25.24031 36525 ft 436 kts 186°
2026-05-05 20:29 62.48047 25.24083 36636 ft 437 kts 186°
2026-05-05 20:30 62.45008 25.24132 36707 ft 438 kts 185°
2026-05-05 20:30 62.38899 25.24234 36717 ft 440 kts 185°
2026-05-05 20:31 62.32834 25.24335 36728 ft 438 kts 185°
2026-05-05 20:31 62.26778 25.24437 36726 ft 438 kts 185°
2026-05-05 20:32 62.20706 25.24537 36734 ft 438 kts 186°
2026-05-05 20:32 62.14655 25.24635 36718 ft 435 kts 186°
2026-05-05 20:32 62.11636 25.24688 36374 ft 434 kts 186°
2026-05-05 20:33 62.08621 25.24741 35688 ft 439 kts 186°
2026-05-05 20:33 62.05589 25.24790 35060 ft 441 kts 187°
2026-05-05 20:33 62.02564 25.24846 34543 ft 439 kts 187°
2026-05-05 20:33 61.99546 25.24898 34015 ft 436 kts 187°
2026-05-05 20:34 61.96516 25.24950 33486 ft 435 kts 188°
2026-05-05 20:34 61.93527 25.25001 32968 ft 433 kts 188°
2026-05-05 20:34 61.90535 25.25049 32437 ft 432 kts 189°
2026-05-05 20:34 61.87548 25.25097 31932 ft 429 kts 189°
2026-05-05 20:35 61.84571 25.25146 31440 ft 427 kts 189°
2026-05-05 20:35 61.81671 25.25191 30947 ft 424 kts 189°
2026-05-05 20:35 61.78715 25.25240 30479 ft 419 kts 190°
2026-05-05 20:35 61.75832 25.25256 30000 ft 409 kts 192°
2026-05-05 20:36 61.73101 25.24577 29492 ft 394 kts 199°
2026-05-05 20:36 61.70434 25.23672 28917 ft 391 kts 199°
2026-05-05 20:36 61.67779 25.22750 28361 ft 387 kts 199°
2026-05-05 20:36 61.65167 25.21853 27825 ft 382 kts 199°
2026-05-05 20:37 61.62551 25.20968 27259 ft 379 kts 199°
2026-05-05 20:37 61.59963 25.20096 26677 ft 376 kts 199°
2026-05-05 20:37 61.57414 25.19239 26118 ft 372 kts 199°
2026-05-05 20:37 61.54888 25.18399 25561 ft 369 kts 199°
2026-05-05 20:38 61.52354 25.17559 24993 ft 366 kts 199°
2026-05-05 20:38 61.49868 25.16734 24456 ft 363 kts 199°
2026-05-05 20:38 61.47426 25.15927 23947 ft 359 kts 200°
2026-05-05 20:38 61.44968 25.15115 23407 ft 356 kts 199°
2026-05-05 20:39 61.42556 25.14318 22834 ft 356 kts 199°
2026-05-05 20:39 61.40112 25.13510 22256 ft 355 kts 199°
2026-05-05 20:39 61.37672 25.12706 21683 ft 354 kts 199°
2026-05-05 20:39 61.35283 25.11925 21142 ft 351 kts 199°
2026-05-05 20:40 61.32867 25.11139 20611 ft 349 kts 199°
2026-05-05 20:40 61.30494 25.10368 20064 ft 347 kts 199°
2026-05-05 20:40 61.28115 25.09597 19534 ft 346 kts 199°
2026-05-05 20:40 61.25778 25.08837 18974 ft 341 kts 199°
2026-05-05 20:41 61.23434 25.08075 18204 ft 341 kts 198°
2026-05-05 20:41 61.21102 25.07305 17531 ft 343 kts 198°
2026-05-05 20:41 61.18768 25.06538 17025 ft 342 kts 197°
2026-05-05 20:41 61.16434 25.05778 16488 ft 342 kts 196°
2026-05-05 20:42 61.14105 25.05025 15930 ft 343 kts 195°
2026-05-05 20:42 61.11737 25.04261 15386 ft 343 kts 194°
2026-05-05 20:42 61.09401 25.03511 14843 ft 344 kts 194°
2026-05-05 20:42 61.07031 25.02750 14287 ft 345 kts 193°
2026-05-05 20:43 61.04670 25.01998 13745 ft 345 kts 193°
2026-05-05 20:43 61.02316 25.01251 13238 ft 343 kts 193°
2026-05-05 20:43 60.99971 25.00507 12767 ft 341 kts 192°
2026-05-05 20:43 60.97654 24.99770 12428 ft 335 kts 192°
2026-05-05 20:44 60.95377 24.99051 12108 ft 329 kts 192°
2026-05-05 20:44 60.93138 24.98343 11792 ft 324 kts 192°
2026-05-05 20:44 60.90938 24.97647 11460 ft 319 kts 192°
2026-05-05 20:44 60.88786 24.96963 11143 ft 315 kts 192°
2026-05-05 20:45 60.84522 24.95612 10529 ft 306 kts 192°
2026-05-05 20:45 60.82427 24.94951 10234 ft 302 kts 192°
2026-05-05 20:45 60.80363 24.94302 9943 ft 297 kts 192°
2026-05-05 20:46 60.78354 24.93670 9664 ft 293 kts 192°
2026-05-05 20:46 60.76355 24.93041 9390 ft 289 kts 192°
2026-05-05 20:46 60.74382 24.92420 9117 ft 285 kts 191°
2026-05-05 20:46 60.72448 24.91811 8844 ft 281 kts 191°
2026-05-05 20:47 60.70525 24.91208 8526 ft 279 kts 191°
2026-05-05 20:47 60.68614 24.90610 8183 ft 278 kts 191°
2026-05-05 20:47 60.66717 24.90018 7841 ft 277 kts 192°
2026-05-05 20:47 60.64832 24.89429 7503 ft 276 kts 192°
2026-05-05 20:48 60.62953 24.88842 7167 ft 275 kts 191°
2026-05-05 20:48 60.61057 24.88250 6810 ft 272 kts 191°
2026-05-05 20:48 60.59212 24.87677 6360 ft 266 kts 192°
2026-05-05 20:48 60.57430 24.87128 5937 ft 259 kts 192°
2026-05-05 20:49 60.55674 24.86582 5469 ft 254 kts 192°
2026-05-05 20:49 60.53950 24.86049 5061 ft 248 kts 192°
2026-05-05 20:49 60.52272 24.85528 4607 ft 245 kts 192°
2026-05-05 20:49 60.50583 24.85002 3998 ft 242 kts 192°
2026-05-05 20:50 60.48955 24.84499 3398 ft 237 kts 192°
2026-05-05 20:50 60.47328 24.83996 2812 ft 241 kts 193°
2026-05-05 20:50 60.45659 24.83716 2235 ft 249 kts 175°
2026-05-05 20:50 60.44030 24.84828 1981 ft 242 kts 154°
2026-05-05 20:51 60.42650 24.86445 2064 ft 217 kts 151°
2026-05-05 20:51 60.41399 24.87888 2013 ft 196 kts 154°
2026-05-05 20:51 60.40251 24.89088 1835 ft 181 kts 156°
2026-05-05 20:51 60.39162 24.90183 1573 ft 169 kts 156°
2026-05-05 20:52 60.38141 24.91216 1347 ft 160 kts 156°
2026-05-05 20:52 60.37157 24.92221 1143 ft 158 kts 156°
2026-05-05 20:52 60.36191 24.93213 936 ft 155 kts 156°
2026-05-05 20:52 60.35234 24.94191 727 ft 153 kts 156°
2026-05-05 20:53 60.34305 24.95172 543 ft 151 kts 157°
2026-05-05 20:53 60.33367 24.96112 306 ft 148 kts 156°
2026-05-05 20:53 60.32486 24.97004 190 ft 132 kts 155°
2026-05-05 20:53 60.31916 24.97587 190 ft 49 kts 153°
2026-05-05 20:54 60.31751 24.97742 190 ft 11 kts 173°
2026-05-05 20:54 60.31684 24.97673 190 ft 11 kts 237°
2026-05-05 20:54 60.31672 24.97525 190 ft 10 kts 306°
2026-05-05 20:54 60.31739 24.97439 190 ft 11 kts 332°
2026-05-05 20:55 60.31815 24.97358 190 ft 12 kts 332°
2026-05-05 20:55 60.31894 24.97282 190 ft 12 kts 335°
2026-05-05 20:55 60.31930 24.97199 190 ft 7 kts 271°
2026-05-05 20:55 60.31901 24.97138 190 ft 3 kts 207°
2026-05-05 20:56 60.31884 24.97086 190 ft 4 kts 244°
2026-05-05 20:56 60.31870 24.97030 190 ft 3 kts 243°
2026-05-05 20:56 60.31866 24.97012 190 ft 0 kts 243°